This demonstration page uses our WeatherBlox Daily Observations layout. Learn more.

Left ArrowRight Arrow

39.51506, -84.39828

Hourly Observations for June 11, 2019

Temp ( °F °C ) Dew Point ( °F °C ) Humidity (%) Winds ( mph kmh ) Pressure ( in mb ) Visibility ( mi km ) Precip ( " mm )
12:15 am 00:15 Clear 53 11.5 52 10.9 96 96 N N/A 30.20 1023 10 16 N/A
12:35 am 00:35 Clear 51 10.3 50 9.9 97 97 N N/A 30.20 1023 10 16 N/A
12:55 am 00:55 Clear 51 10.6 50 10.2 97 97 N N/A 30.20 1023 10 16 N/A
1:15 am 01:15 Clear 51 10.6 50 10.1 97 97 N N/A 30.20 1023 10 16 N/A
1:35 am 01:35 Clear 50 10 49 9.5 97 97 N N/A 30.20 1023 10 16 N/A
1:55 am 01:55 Clear 50 10 49 9.6 97 97 N N/A 30.20 1023 10 16 N/A
2:15 am 02:15 Clear 49 9.6 48 9.1 97 97 N N/A 30.21 1023 10 16 N/A
2:35 am 02:35 Clear 49 9.7 49 9.3 97 97 N N/A 30.21 1023 10 16 N/A
2:55 am 02:55 Clear 49 9.4 48 9 97 97 N N/A 30.21 1023 10 16 N/A
3:15 am 03:15 Clear 48 8.8 47 8.4 97 97 N N/A 30.21 1023 10 16 N/A
3:35 am 03:35 Clear with Mist and Fog 48 8.8 47 8.5 98 98 N N/A 30.21 1023 3 4 N/A
3:55 am 03:55 Clear with Mist and Fog 48 8.8 47 8.6 99 99 N N/A 30.20 1023 5 8 N/A
4:15 am 04:15 Mostly Cloudy with Mist and Fog 47 8.4 47 8.3 99 99 N N/A 30.20 1023 1 2 N/A
4:35 am 04:35 Clear 46 8 46 7.8 99 99 N N/A 30.21 1023 7 11 N/A
4:55 am 04:55 Mostly Cloudy with Mist and Fog 47 8.4 47 8.3 99 99 N N/A 30.21 1023 1 1 N/A
5:15 am 05:15 Mostly Cloudy with Mist and Fog 47 8.4 47 8.3 99 99 N N/A 30.22 1023 1 2 N/A
5:35 am 05:35 Mostly Cloudy with Mist and Fog 46 7.8 46 7.7 99 99 N N/A 30.23 1024 1 2 N/A
5:55 am 05:55 Mostly Cloudy with Fog 46 7.8 46 7.7 99 99 N N/A 30.23 1024 0 0 N/A
6:15 am 06:15 Mostly Cloudy with Fog 47 8.2 47 8.1 99 99 N N/A 30.24 1024 5 8 N/A
6:35 am 06:35 Sunny 46 7.7 46 7.6 99 99 N N/A 30.24 1024 10 16 N/A
6:55 am 06:55 Sunny 47 8.2 47 8.1 99 99 N N/A 30.25 1025 10 16 N/A
7:15 am 07:15 Sunny 49 9.4 49 9.3 99 99 N N/A 30.26 1025 10 16 N/A
7:35 am 07:35 Sunny 51 10.3 50 10.2 99 99 N N/A 30.26 1025 10 16 N/A
7:55 am 07:55 Sunny 52 10.9 51 10.4 97 97 N N/A 30.27 1025 10 16 N/A
8:15 am 08:15 Sunny 54 12.3 52 11.2 93 93 N N/A 30.26 1025 10 16 N/A
8:35 am 08:35 Sunny 56 13.5 53 11.7 89 89 N N/A 30.26 1025 10 16 N/A
8:55 am 08:55 Sunny 58 14.5 52 10.9 79 79 N N/A 30.27 1025 10 16 N/A
9:15 am 09:15 Sunny 61 16.2 53 11.4 73 73 N N/A 30.25 1025 10 16 N/A
9:35 am 09:35 Sunny 63 17.3 53 11.4 68 68 N N/A 30.25 1024 10 16 N/A
9:55 am 09:55 Sunny 65 18.4 49 9.7 57 57 N N/A 30.25 1024 10 16 N/A
10:15 am 10:15 Sunny 66 19.1 48 8.7 51 51 WSW 3 6 30.25 1024 10 16 N/A
10:35 am 10:35 Sunny 68 20.1 49 9.5 51 51 N N/A 30.24 1024 10 16 N/A
10:55 am 10:55 Sunny 70 20.9 49 9.5 48 48 ESE 5 7 30.24 1024 10 16 N/A
11:15 am 11:15 Sunny 70 21 43 6.3 39 39 N N/A 30.24 1024 10 16 N/A
11:35 am 11:35 Sunny 70 21.3 43 6.2 38 38 N N/A 30.24 1024 10 16 N/A
11:55 am 11:55 Sunny 71 21.8 43 6.2 36 36 NE 5 7 30.23 1024 10 16 N/A
12:15 pm 12:15 Sunny 72 22.2 46 7.8 40 40 ENE 3 6 30.22 1023 10 16 N/A
12:35 pm 12:35 Sunny 73 22.5 43 6 34 34 NE 5 7 30.22 1023 10 16 N/A
12:55 pm 12:55 Sunny 73 22.8 47 8.1 39 39 E 6 9 30.22 1023 10 16 N/A
1:15 pm 13:15 Sunny 73 23 44 6.9 36 36 ENE 10 17 30.21 1023 10 16 N/A
1:35 pm 13:35 Sunny 74 23.2 45 7 35 35 NE 9 15 30.19 1022 10 16 N/A
1:55 pm 13:55 Sunny 74 23.5 47 8.3 38 38 ENE 8 13 30.18 1022 10 16 N/A
2:15 pm 14:15 Sunny 74 23.4 43 5.9 32 32 N N/A 30.18 1022 10 16 N/A
2:35 pm 14:35 Sunny 75 23.9 44 6.4 32 32 ENE 7 11 30.17 1022 10 16 N/A
2:55 pm 14:55 Sunny 75 24.1 41 5.2 30 30 N N/A 30.16 1021 10 16 N/A
3:15 pm 15:15 Sunny 76 24.7 46 8 35 35 ENE 10 17 30.15 1021 10 16 N/A
3:35 pm 15:35 Sunny 76 24.7 46 7.9 34 34 E 10 17 30.15 1021 10 16 N/A
3:55 pm 15:55 Sunny 76 24.3 44 6.6 32 32 NNW 5 7 30.14 1021 10 16 N/A
4:15 pm 16:15 Sunny 77 25 44 6.7 31 31 ESE 9 15 30.14 1021 10 16 N/A
4:35 pm 16:35 Sunny 77 25.1 45 7.4 32 32 E 7 11 30.13 1020 10 16 N/A
4:55 pm 16:55 Sunny 77 24.8 45 7.2 33 33 E 5 7 30.12 1020 10 16 N/A
5:15 pm 17:15 Sunny 77 24.9 46 7.5 33 33 NE 3 6 30.12 1020 10 16 N/A
5:35 pm 17:35 Sunny 76 24.6 46 7.9 35 35 E 9 15 30.11 1020 10 16 N/A
5:55 pm 17:55 Partly Cloudy 76 24.6 46 7.5 34 34 N N/A 30.11 1020 10 16 N/A
6:15 pm 18:15 Sunny 77 24.9 49 9.2 37 37 N N/A 30.11 1020 10 16 N/A
6:35 pm 18:35 Partly Cloudy 77 25 48 9 36 36 SE 7 11 30.10 1019 10 16 N/A
6:55 pm 18:55 Sunny 76 24.4 47 8.3 36 36 ESE 5 7 30.10 1019 10 16 N/A
7:15 pm 19:15 Sunny 76 24.4 46 8 35 35 E 6 9 30.09 1019 10 16 N/A
7:35 pm 19:35 Sunny 75 24 49 9.2 39 39 ENE 3 6 30.10 1019 10 16 N/A
7:55 pm 19:55 Sunny 73 22.6 49 9.3 43 43 ENE 3 6 30.10 1019 10 16 N/A
8:15 pm 20:15 Sunny 70 21 56 13.6 63 63 N N/A 30.10 1019 10 16 N/A
8:35 pm 20:35 Sunny 68 19.9 58 14.5 71 71 N 3 6 30.10 1019 10 16 N/A
8:55 pm 20:55 Sunny 65 18.4 57 14.1 76 76 N N/A 30.11 1020 10 16 N/A
9:15 pm 21:15 Clear 65 18.2 55 12.7 70 70 N 3 6 30.11 1020 10 16 N/A
9:35 pm 21:35 Clear 62 16.7 56 13.2 80 80 NNE 5 7 30.11 1020 10 16 N/A
9:55 pm 21:55 Partly Cloudy 60 15.7 56 13.2 85 85 N 3 6 30.12 1020 10 16 N/A
10:15 pm 22:15 Clear 59 15 55 12.8 87 87 N N/A 30.13 1020 10 16 N/A
10:35 pm 22:35 Clear 59 14.8 55 12.8 88 88 N N/A 30.13 1020 10 16 N/A
10:55 pm 22:55 Clear 57 14 54 12.3 90 90 N N/A 30.13 1020 10 16 N/A
11:15 pm 23:15 Clear 58 14.3 54 12.1 87 87 N N/A 30.14 1021 10 16 N/A
11:35 pm 23:35 Clear 57 13.9 54 12 88 88 N N/A 30.14 1021 10 16 N/A
11:55 pm 23:55 Clear 55 12.8 53 11.9 94 94 N N/A 30.14 1021 10 16 N/A

Powered by AerisWeather